DW1114 Weather Reports


Display with metric or nautical units.
time (UTC)temp
F
wind
direction
speed
MPH
gust
MPH
rain 1hr
in
rain 24hr
in
rain mn
in
humidity
%
barometer
mb
20260506112403 43 26 3.0 6.0 0.00 0.00 0.00 1008.5
20260506111924 43 349 1.0 6.0 0.00 0.00 0.00 1008.8
20260506111403 43 336 2.0 6.0 0.00 0.00 0.00 1009.5
20260506110903 43 3 1.0 5.0 0.00 0.00 0.00 1009.5
20260506110424 43 355 2.0 8.0 0.00 0.00 0.00 1009.9
20260506105903 43 337 3.0 8.0 0.00 0.00 0.00 1008.8
20260506105403 43 336 2.0 4.0 0.00 0.00 0.00 1008.5
20260506104903 43 322 1.0 4.0 0.00 0.00 0.00 1008.5
20260506104403 43 349 1.0 5.0 0.00 0.00 0.00 1008.8
20260506103903 43 345 2.0 7.0 0.00 0.00 0.00 1008.2
20260506103403 43 340 2.0 7.0 0.00 0.00 0.00 1008.2
20260506102903 43 356 3.0 7.0 0.00 0.00 0.00 1008.2
20260506102403 43 349 2.0 6.0 0.00 0.00 0.00 1007.8
20260506101903 43 19 3.0 11.0 0.00 0.00 0.00 1008.2
20260506101403 44 0 3.0 11.0 0.00 0.00 0.00 1008.2
20260506100903 44 357 2.0 6.0 0.00 0.00 0.00 1008.8
20260506100403 44 323 2.0 7.0 0.00 0.00 0.00 1008.8
20260506095903 44 326 3.0 8.0 0.00 0.00 0.00 1008.2
20260506095403 44 334 2.0 8.0 0.00 0.00 0.00 1008.2
20260506094903 44 318 2.0 6.0 0.00 0.00 0.00 1007.8
20260506094403 44 337 2.0 6.0 0.00 0.00 0.00 1007.5
20260506093904 44 359 0.0 6.0 0.00 0.00 0.00 1007.8
20260506093403 44 345 1.0 6.0 0.00 0.00 0.00 1007.8
20260506092903 44 351 0.0 5.0 0.00 0.00 0.00 1007.5
20260506092403 43 38 3.0 7.0 0.00 0.00 0.00 1006.8
20260506091903 44 25 3.0 9.0 0.00 0.00 0.00 1007.1
20260506091424 44 22 2.0 9.0 0.00 0.00 0.00 1007.5
20260506090903 44 22 2.0 6.0 0.00 0.00 0.00 1007.8
20260506090403 44 16 2.0 7.0 0.00 0.00 0.00 1007.5
20260506085903 43 2 2.0 7.0 0.00 0.00 0.00 1007.5
20260506085403 44 352 2.0 9.0 0.00 0.00 0.00 1007.8
20260506084903 44 33 3.0 9.0 0.00 0.00 0.00 1007.8
20260506084403 43 31 4.0 10.0 0.00 0.00 0.00 1007.1
20260506083903 43 43 2.0 10.0 0.00 0.00 0.00 1007.1
20260506083403 43 5 3.0 7.0 0.00 0.00 0.00 1007.1
20260506082903 43 12 2.0 7.0 0.00 0.00 0.00 1007.8
20260506082404 43 25 2.0 7.0 0.00 0.00 0.00 1008.2
20260506081903 43 3 2.0 11.0 0.00 0.00 0.00 1007.5
20260506081403 43 349 4.0 12.0 0.00 0.00 0.00 1007.5
20260506080903 43 12 2.0 12.0 0.00 0.00 0.00 1007.1
20260506080403 43 357 3.0 11.0 0.00 0.00 0.00 1007.8
20260506073424 44 35 3.0 12.0 0.00 0.00 0.00 1008.2
20260506072903 44 358 3.0 12.0 0.00 0.00 0.00 1007.8
20260506072403 44 345 2.0 8.0 0.00 0.00 0.00 1007.8
20260506071903 44 356 2.0 8.0 0.00 0.00 0.00 1007.5
20260506071403 44 345 2.0 7.0 0.00 0.00 0.00 1007.5
20260506070903 44 332 2.0 10.0 0.00 0.00 0.00 1007.5
20260506070403 44 345 3.0 10.0 0.00 0.00 0.00 1007.8
20260506062404 45 7 4.0 9.0 0.00 0.00 0.00 1007.5
20260506061903 45 12 3.0 9.0 0.00 0.00 0.00 1007.1
20260506061424 45 14 3.0 9.0 0.00 0.00 0.00 1006.8
20260506060924 45 29 3.0 11.0 0.00 0.00 0.00 1007.1
20260506060403 46 43 4.0 11.0 0.00 0.00 0.00 1007.5
20260506050903 47 17 3.0 11.0 0.00 0.00 0.00 1008.2
20260506050403 47 351 2.0 11.0 0.00 0.00 0.00 1007.5
20260506044924 47 348 3.0 7.0 0.00 0.00 0.00 1006.8
20260506044403 47 333 2.0 10.0 0.00 0.00 0.00 1006.8
20260506043903 47 10 2.0 12.0 0.00 0.00 0.00 1006.8
20260506043403 47 22 5.0 12.0 0.00 0.00 0.00 1006.5
20260506042903 48 25 5.0 10.0 0.00 0.00 0.00 1007.1
20260506042402 48 358 4.0 9.0 0.00 0.00 0.00 1006.8
20260506041903 48 0 3.0 9.0 0.00 0.00 0.00 1007.1
20260506041403 48 23 4.0 12.0 0.00 0.00 0.00 1007.1
20260506040903 49 357 4.0 12.0 0.00 0.00 0.00 1007.1
20260506040403 49 4 3.0 9.0 0.00 0.00 0.00 1007.1
20260506035903 49 353 3.0 9.0 0.00 0.00 0.00 1006.8
20260506035403 49 357 2.0 7.0 0.00 0.00 0.00 1006.5
20260506034904 49 19 3.0 7.0 0.00 0.00 0.00 1005.8
20260506034403 49 0 1.0 6.0 0.00 0.00 0.00 1006.5
20260506033903 49 12 2.0 6.0 0.00 0.00 0.00 1005.8
20260506033403 49 17 3.0 6.0 0.00 0.00 0.00 1006.1
20260506032902 49 19 1.0 5.0 0.00 0.00 0.00 1006.1
20260506032403 49 20 3.0 6.0 0.00 0.00 0.00 1006.5
20260506031903 49 25 3.0 6.0 0.00 0.00 0.00 1006.1
20260506031403 49 50 2.0 6.0 0.00 0.00 0.00 1006.5
20260506030903 49 29 2.0 6.0 0.00 0.00 0.00 1006.5
20260506030403 49 167 1.0 6.0 0.00 0.00 0.00 1006.1
20260506025904 49 12 3.0 6.0 0.00 0.00 0.00 1006.5
20260506025424 49 13 2.0 7.0 0.00 0.00 0.00 1006.5
20260506024903 49 17 3.0 7.0 0.00 0.00 0.00 1006.5
20260506024404 49 6 1.0 5.0 0.00 0.00 0.00 1006.8
20260506023903 49 280 0.0 7.0 0.00 0.00 0.00 1007.1
20260506023403 50 345 3.0 7.0 0.00 0.00 0.00 1007.1
20260506022903 50 17 2.0 8.0 0.00 0.00 0.00 1006.8
20260506022403 50 22 2.0 8.0 0.00 0.00 0.00 1007.1
20260506021903 50 0 3.0 7.0 0.00 0.00 0.00 1007.8
20260506021402 50 7 2.0 8.0 0.00 0.00 0.00 1007.5
20260506020903 50 338 3.0 8.0 0.00 0.00 0.00 1007.1
20260506020403 50 359 2.0 7.0 0.00 0.00 0.00 1007.5
20260506015925 51 345 3.0 8.0 0.00 0.00 0.00 1007.1
20260506015403 51 339 3.0 10.0 0.00 0.00 0.00 1007.1
20260506014903 52 357 2.0 10.0 0.00 0.00 0.00 1007.5
20260506014403 53 334 3.0 8.0 0.00 0.00 0.00 1007.5
20260506013903 54 334 2.0 10.0 0.00 0.00 0.00 1006.8
20260506013403 55 313 5.0 10.0 0.00 0.00 0.00 1007.1
20260506012945 56 312 4.0 9.0 0.00 0.00 0.00 1007.1
20260506012424 58 305 4.0 10.0 0.00 0.00 0.00 1006.8
20260506011902 59 279 3.0 10.0 0.00 0.00 0.00 1006.8
20260506011403 59 275 3.0 8.0 0.00 0.00 0.00 1006.8
20260506010903 59 262 3.0 5.0 0.00 0.00 0.00 1007.8
20260506010403 59 269 1.0 6.0 0.00 0.00 0.00 1007.1
20260506005903 59 273 2.0 6.0 0.00 0.00 0.00 1007.1
20260506005403 59 280 3.0 6.0 0.00 0.00 0.00 1007.1
20260506004903 59 268 2.0 6.0 0.00 0.00 0.00 1007.1
20260506004403 59 249 1.0 6.0 0.00 0.00 0.00 1007.1
20260506003903 59 225 1.0 6.0 0.00 0.00 0.00 1006.8
20260506003404 59 211 0.0 6.0 0.00 0.00 0.00 1006.8
20260506002903 59 209 1.0 6.0 0.00 0.00 0.00 1006.8
20260506002403 59 192 1.0 2.0 0.00 0.00 0.00 1006.8
20260506001903 59 209 1.0 6.0 0.00 0.00 0.00 1007.1
20260506001404 59 195 0.0 6.0 0.00 0.00 0.00 1006.8
20260506000945 60 205 0.0 5.0 0.00 0.00 0.00 1007.1
20260506000403 59 189 2.0 5.0 0.00 0.00 0.00 1007.1
20260505235903 60 210 2.0 6.0 0.00 0.00 0.00 1007.1
20260505235403 60 196 2.0 6.0 0.00 0.00 0.00 1007.1
20260505233903 60 192 2.0 3.0 0.00 0.00 0.00 1007.5
20260505233403 60 202 2.0 3.0 0.00 0.00 0.00 1007.5
20260505232902 60 214 0.0 3.0 0.00 0.00 0.00 1006.5
20260505232403 60 197 2.0 4.0 0.00 0.00 0.00 1006.8
20260505231903 60 203 2.0 5.0 0.00 0.00 0.00 1007.5
20260505231403 60 193 2.0 5.0 0.00 0.00 0.00 1007.5
20260505230903 60 169 2.0 4.0 0.00 0.00 0.00 1007.1
20260505230403 60 188 1.0 7.0 0.00 0.00 0.00 1006.8
20260505225903 60 205 2.0 7.0 0.00 0.00 0.00 1007.1
20260505225403 60 198 1.0 3.0 0.00 0.00 0.00 1007.8
20260505224904 60 210 1.0 4.0 0.00 0.00 0.00 1007.8
20260505224403 60 189 2.0 4.0 0.00 0.00 0.00 1008.5
20260505223903 60 188 1.0 5.0 0.00 0.00 0.00 1007.8
20260505222903 60 189 2.0 6.0 0.00 0.00 0.00 1007.8
20260505222403 60 201 2.0 6.0 0.00 0.00 0.00 1007.8
20260505221903 60 213 1.0 6.0 0.00 0.00 0.00 1007.8
20260505221403 60 203 2.0 7.0 0.00 0.00 0.00 1008.2
20260505220903 60 175 0.0 7.0 0.00 0.00 0.00 1007.5
20260505220403 60 206 1.0 5.0 0.00 0.00 0.00 1007.5
20260505215903 60 188 2.0 5.0 0.00 0.00 0.00 1007.5
20260505215403 60 198 1.0 5.0 0.00 0.00 0.00 1007.8
20260505214903 60 184 1.0 3.0 0.00 0.00 0.00 1007.5
20260505214403 60 206 1.0 3.0 0.00 0.00 0.00 1007.8
20260505213903 60 218 1.0 4.0 0.00 0.00 0.00 1007.8
20260505213424 60 198 2.0 4.0 0.00 0.00 0.00 1007.8
20260505212903 60 196 1.0 4.0 0.00 0.00 0.00 1007.8
20260505212424 60 206 1.0 6.0 0.00 0.00 0.00 1007.8
20260505211903 60 204 2.0 6.0 0.00 0.00 0.00 1007.8
20260505211403 60 205 1.0 4.0 0.00 0.00 0.00 1008.2
20260505210903 60 197 2.0 7.0 0.00 0.00 0.00 1007.5
20260505210402 60 201 4.0 7.0 0.00 0.00 0.00 1007.5
20260505205903 60 234 3.0 9.0 0.00 0.00 0.00 1007.5
20260505205402 60 248 1.0 9.0 0.00 0.00 0.00 1008.2
20260505204903 60 192 1.0 7.0 0.00 0.00 0.00 1007.8
20260505204404 60 236 2.0 7.0 0.00 0.00 0.00 1008.2
20260505203903 60 194 3.0 5.0 0.00 0.00 0.00 1008.2
20260505203403 60 231 0.0 6.0 0.00 0.00 0.00 1007.5
20260505202903 61 217 1.0 6.0 0.00 0.00 0.00 1007.8
20260505201403 61 239 1.0 7.0 0.00 0.00 0.00 1008.2
20260505200904 61 220 3.0 8.0 0.00 0.00 0.00 1008.2
20260505200403 61 219 3.0 17.0 0.00 0.00 0.00 1007.8
20260505195924 62 209 1.0 17.0 0.00 0.00 0.00 1008.2
20260505195402 63 257 3.0 9.0 0.00 0.00 0.00 1008.5
20260505194903 64 273 4.0 8.0 0.00 0.00 0.00 1008.2
20260505194403 65 252 0.0 9.0 0.00 0.00 0.00 1007.8
20260505193924 66 266 3.0 9.0 0.00 0.00 0.00 1008.2
20260505193403 66 246 2.0 4.0 0.00 0.00 0.00 1008.2
20260505192903 66 242 2.0 4.0 0.00 0.00 0.00 1007.5
20260505192403 66 198 1.0 5.0 0.00 0.00 0.00 1007.5
20260505191924 66 193 2.0 5.0 0.00 0.00 0.00 1008.5
20260505191424 66 200 2.0 5.0 0.00 0.00 0.00 1007.8
20260505190903 66 202 2.0 5.0 0.00 0.00 0.00 1007.8
20260505190403 66 236 1.0 5.0 0.00 0.00 0.00 1007.8
20260505185903 66 203 2.0 5.0 0.00 0.00 0.00 1007.8
20260505185403 66 192 3.0 6.0 0.00 0.00 0.00 1007.8
20260505184903 66 210 3.0 9.0 0.00 0.00 0.00 1007.8
20260505184404 66 199 3.0 9.0 0.00 0.00 0.00 1007.8
20260505183903 67 184 3.0 6.0 0.00 0.00 0.00 1008.2
20260505183403 67 192 3.0 8.0 0.00 0.00 0.00 1007.8
20260505182903 67 192 4.0 8.0 0.00 0.00 0.00 1008.8
20260505182403 67 228 4.0 10.0 0.00 0.00 0.00 1008.2
20260505181904 67 199 3.0 10.0 0.00 0.00 0.00 1008.2
20260505181403 67 176 4.0 9.0 0.00 0.00 0.00 1008.5
20260505180903 67 196 3.0 9.0 0.00 0.00 0.00 1008.2
20260505180424 67 207 4.0 8.0 0.00 0.00 0.00 1008.2
20260505175924 66 208 2.0 5.0 0.00 0.00 0.00 1008.5
20260505175403 66 210 2.0 6.0 0.00 0.00 0.00 1008.5
20260505174903 66 208 3.0 6.0 0.00 0.00 0.00 1009.2
20260505174402 66 196 1.0 15.0 0.00 0.00 0.00 1009.2
20260505173903 65 215 4.0 15.0 0.00 0.00 0.00 1008.5
20260505173404 66 196 4.0 7.0 0.00 0.00 0.00 1008.5
20260505172903 66 200 4.0 7.0 0.00 0.00 0.00 1008.5
20260505172403 66 211 3.0 7.0 0.00 0.00 0.00 1009.2
20260505171904 66 206 3.0 7.0 0.00 0.00 0.00 1008.8
20260505171403 66 207 3.0 7.0 0.00 0.00 0.00 1008.8
20260505170903 66 202 3.0 7.0 0.00 0.00 0.00 1008.8
20260505170403 66 208 2.0 7.0 0.00 0.00 0.00 1008.8
20260505165903 66 199 3.0 7.0 0.00 0.00 0.00 1008.8
20260505165424 66 202 3.0 7.0 0.00 0.00 0.00 1008.8
20260505164903 66 208 3.0 11.0 0.00 0.00 0.00 1008.5
20260505164425 66 193 4.0 11.0 0.00 0.00 0.00 1008.5
20260505163924 67 200 5.0 9.0 0.00 0.00 0.00 1008.5
20260505163403 67 203 4.0 7.0 0.00 0.00 0.00 1009.2
20260505162902 67 213 3.0 8.0 0.00 0.00 0.00 1008.8
20260505162403 67 244 2.0 9.0 0.00 0.00 0.00 1009.2
20260505161902 67 210 4.0 11.0 0.00 0.00 0.00 1009.2
20260505161445 67 205 4.0 11.0 0.00 0.00 0.00 1009.2
20260505160903 68 205 4.0 10.0 0.00 0.00 0.00 1008.8
20260505160425 68 207 3.0 9.0 0.00 0.00 0.00 1008.8
20260505152903 66 196 5.0 9.0 0.00 0.00 0.00 1008.8
20260505152403 66 203 4.0 8.0 0.00 0.00 0.00 1008.5
20260505151903 66 216 3.0 8.0 0.00 0.00 0.00 1008.5
20260505151403 67 274 0.0 17.0 0.00 0.00 0.00 1008.5
20260505150902 66 207 4.0 17.0 0.00 0.00 0.00 1008.8
20260505150403 66 216 3.0 6.0 0.00 0.00 0.00 1009.2
20260505140403 62 201 2.0 5.0 0.00 0.00 0.00 1007.8
20260505124902 57 190 2.0 7.0 0.00 0.00 0.00 1007.8
20260505124403 57 197 3.0 7.0 0.00 0.00 0.00 1008.2
20260505123903 57 184 3.0 6.0 0.00 0.00 0.00 1008.2
20260505123403 57 202 4.0 6.0 0.00 0.00 0.00 1007.8
20260505122903 57 199 3.0 6.0 0.00 0.00 0.00 1007.5
20260505122403 56 194 3.0 6.0 0.00 0.00 0.00 1008.2
20260505121903 56 203 3.0 5.0 0.00 0.00 0.00 1008.2
20260505121404 56 204 3.0 7.0 0.00 0.00 0.00 1007.8
20260505120903 56 193 2.0 7.0 0.00 0.00 0.00 1007.8
20260505120403 56 200 3.0 5.0 0.00 0.00 0.00 1007.8
20260505115903 56 207 4.0 5.0 0.00 0.00 0.00 1007.5
20260505115403 56 198 3.0 5.0 0.00 0.00 0.00 1007.8
20260505114903 56 200 3.0 5.0 0.00 0.00 0.00 1007.5
20260505114424 56 201 1.0 3.0 0.00 0.00 0.00 1007.5
20260505113903 56 192 1.0 3.0 0.00 0.00 0.00 1007.5
20260505113403 55 210 0.0 4.0 0.00 0.00 0.00 1007.5
20260505112924 55 192 2.0 4.0 0.00 0.00 0.00 1007.1